Weather History for West Memphis, AR

Change the Weather History Date:

Friday, November 29, 2013

  Actual Average Record
Temperature  
Mean Temperature 42 °F -  
Max Temperature 55 °F 53 °F 74 °F (1970)
Min Temperature 28 °F 35 °F 11 °F (1976)
Degree Days  
Heating Degree Days 24    
Moisture  
Dew Point 29 °F    
Average Humidity 66    
Maximum Humidity 92    
Minimum Humidity 38    
Precipitation  
Precipitation 0.00 in - - ()
Sea Level Pressure  
Sea Level Pressure 30.50 in    
Wind  
Wind Speed 1 mph (SSE)    
Max Wind Speed 6 mph    
Max Gust Speed -    
Visibility 10 miles    
Events      
Averages and records for this station are not official NWS values.
T = Trace of Precipitation, MM = Missing Value Source: NWS Daily Summary

Daily Weather History Graph

Daily Weather History Graph

Search for Another Location

Airport:

Trip Planner

Search our weather history database for the weather conditions in past years. The results will help you decide how hot, cold, wet, or windy it might be!

Date:

Astronomy

Nov. 29, 2013 Rise Set
Actual Time 6:49 AM CST 4:49 PM CST
Civil Twilight 6:21 AM CST 5:16 PM CST
Nautical Twilight 5:50 AM CST 5:48 PM CST
Astronomical Twilight 5:19 AM CST 6:18 PM CST
Moon 3:02 AM CST (11/29) 2:27 PM CST (11/29)
Length of Visible Light 10h 55m
Length of Day
9h 59m
Waning Crescent, 14% of the Moon is Illuminated
Nov 29
Waning Crescent
Dec 2
New
Dec 9
First Quarter
Dec 17
Full
Dec 25
Last Quarter

Hourly Weather History & Observations

Time (CST) Temp. Windchill Dew Point Humidity Pressure Visibility Wind Dir Wind Speed Gust Speed Precip Events Conditions
5:53 AM 28.0 °F - 24.1 °F 85% 30.54 in 10.0 mi Calm Calm - N/A   Clear
6:53 AM 28.0 °F - 25.0 °F 88% 30.56 in 10.0 mi Calm Calm - N/A   Clear
7:53 AM 30.9 °F 27.5 °F 28.0 °F 89% 30.56 in 10.0 mi SE 3.5 mph - N/A   Clear
8:53 AM 37.9 °F 35.5 °F 30.0 °F 73% 30.56 in 10.0 mi SSE 3.5 mph - N/A   Clear
9:53 AM 42.1 °F - 30.9 °F 65% 30.57 in 10.0 mi Calm Calm - N/A   Clear
10:53 AM 46.9 °F - 30.9 °F 54% 30.56 in 10.0 mi SSE 3.5 mph - N/A   Clear
11:53 AM 51.1 °F - 30.0 °F 44% 30.53 in 10.0 mi SE 5.8 mph - N/A   Clear
12:53 PM 53.1 °F - 30.0 °F 41% 30.51 in 10.0 mi SSE 4.6 mph - N/A   Clear
1:53 PM 54.0 °F - 28.9 °F 38% 30.49 in 10.0 mi SW 3.5 mph - N/A   Clear
2:53 PM 55.0 °F - 30.0 °F 38% 30.48 in 10.0 mi Calm Calm - N/A   Clear
3:53 PM 54.0 °F - 28.9 °F 38% 30.47 in 10.0 mi Calm Calm - N/A   Clear
4:53 PM 46.9 °F - 28.9 °F 50% 30.46 in 10.0 mi Calm Calm - N/A   Clear
5:53 PM 43.0 °F - 30.0 °F 60% 30.45 in 10.0 mi Calm Calm - N/A   Clear
6:53 PM 39.0 °F - 30.9 °F 73% 30.45 in 10.0 mi Calm Calm - N/A   Clear
7:53 PM 36.0 °F - 30.0 °F 79% 30.45 in 10.0 mi Calm Calm - N/A   Clear
8:53 PM 36.0 °F - 30.0 °F 79% 30.45 in 10.0 mi Calm Calm - N/A   Clear
9:53 PM 34.0 °F - 28.9 °F 82% 30.45 in 10.0 mi Calm Calm - N/A   Clear
10:53 PM 35.1 °F - 30.9 °F 85% 30.44 in 10.0 mi Calm Calm - N/A   Clear
11:53 PM 34.0 °F - 32.0 °F 92% 30.44 in 10.0 mi Calm Calm - N/A   Clear